Location: Newark
(50.0306°N, 2.3272°E)
Time: 16:57:28
(UTC+00:00)

Transit 2A Rocket - Pass Details

Date: 14 December 2019
Orbit: 593 x 910 km, 66.7° (Epoch: 18 January)

Event Time Altitude Azimuth Distance (km) Brightness Sun altitude
Rises 18:34:19 0° 291° (WNW) 2,855 9.0 -25.3°
Reaches altitude 10° 18:38:28 10° 329° (NNW) 1,937 7.4 -26.0°
Maximum altitude 18:39:33 11° 344° (NNW) 1,885 7.1 -26.1°
Enters shadow 18:39:53 11° 349° (NNW) 1,890 7.1 -26.2°
Drops below altitude 10° 18:40:39 10° 359° (N) 1,939 - -26.3°
Sets 18:44:48 0° 38° (NE) 2,867 - -27.0°
